This is the latest recevied weather packets stored in our database for station/object KD4EED. If no packets are shown the sender has not sent any weather packets the latest 10 day(s).
| Time | Temp. | Humidity | Pressure | Rain* | Wind** | Luminosity | Snow |
|---|---|---|---|---|---|---|---|
| 1788289520 | 26.67° C | 56% | 1013.6 hPa | - | - | 583 W/m² | - |
| 1788289220 | 26.67° C | 56% | 1013.5 hPa | - | - | 580 W/m² | - |
| 1788288919 | 27.22° C | 56% | 1013.5 hPa | - | - | 570 W/m² | - |
| 1788288618 | 27.22° C | 55% | 1013.5 hPa | - | - | 568 W/m² | - |
| 1788288314 | 27.22° C | 55% | 1013.4 hPa | - | - | 564 W/m² | - |
| 1788288009 | 27.22° C | 56% | 1013.5 hPa | - | - | 560 W/m² | - |
| 1788287703 | 27.22° C | 57% | 1013.4 hPa | - | - | 558 W/m² | - |
| 1788287399 | 26.67° C | 58% | 1013.4 hPa | - | - | 557 W/m² | - |
| 1788287095 | 26.67° C | 59% | 1013.5 hPa | - | - | 558 W/m² | - |
| 1788286795 | 26.67° C | 58% | 1013.6 hPa | - | - | 551 W/m² | - |
| 1788286494 | 26.11° C | 59% | 1013.6 hPa | - | - | 546 W/m² | - |
| 1788286194 | 26.11° C | 60% | 1013.5 hPa | - | - | 542 W/m² | - |
| 1788285893 | 25.56° C | 62% | 1013.5 hPa | - | - | 533 W/m² | - |
| 1788285604 | 25° C | 64% | 1013.4 hPa | - | - | 523 W/m² | - |
| 1788285286 | 24.44° C | 65% | 1013.5 hPa | - | - | 515 W/m² | - |
| 1788284981 | 23.89° C | 66% | 1013.6 hPa | - | - | 501 W/m² | - |
| 1788284677 | 23.89° C | 67% | 1013.7 hPa | - | - | 490 W/m² | - |
| 1788284373 | 23.33° C | 69% | 1013.5 hPa | - | - | 483 W/m² | - |
| 1788284067 | 23.33° C | 69% | 1013.7 hPa | - | - | 254 W/m² | - |
| 1788283764 | 22.78° C | 69% | 1013.7 hPa | - | - | 63 W/m² | - |
| 1788283459 | 22.78° C | 70% | 1013.4 hPa | - | - | 62 W/m² | - |
| 1788283157 | 22.78° C | 71% | 1013.4 hPa | - | - | 69 W/m² | - |
| 1788282855 | 22.22° C | 72% | 1013.6 hPa | - | - | 67 W/m² | - |
| 1788282555 | 22.22° C | 70% | 1013.6 hPa | - | - | 74 W/m² | - |
| 1788282250 | 22.22° C | 71% | 1013.5 hPa | - | - | 76 W/m² | - |
* Rain since midnight (hover to see other rain measurements)
** Current wind speed in m/s (hover to see current wind gust speed)